This is the latest recevied weather packets stored in our database for station/object KF7PIZ. If no packets are shown the sender has not sent any weather packets the latest 10 day(s).
| Time | Temp. | Humidity | Pressure | Rain* | Wind** | Luminosity | Snow |
|---|---|---|---|---|---|---|---|
| 1777224092 | 11.67° C | 41% | 1009.1 hPa | 0 mm | - | 184 W/m² | - |
| 1777223789 | 11.11° C | 39% | 1009.1 hPa | 0 mm | - | 183 W/m² | - |
| 1777223485 | 11.11° C | 40% | 1009 hPa | 0 mm | - | 644 W/m² | - |
| 1777223183 | 12.22° C | 41% | 1009.1 hPa | 0 mm | - | 528 W/m² | - |
| 1777222880 | 12.22° C | 42% | 1009 hPa | 0 mm | - | 668 W/m² | - |
| 1777222577 | 12.22° C | 43% | 1009 hPa | 0 mm | - | 511 W/m² | - |
| 1777222275 | 15° C | 40% | 1008.5 hPa | 0 mm | - | 517 W/m² | - |
| 1777221973 | 15° C | 36% | 1008.9 hPa | 0 mm | - | 590 W/m² | - |
| 1777221668 | 13.33° C | 43% | 1008.8 hPa | 0 mm | - | 562 W/m² | - |
| 1777221365 | 12.78° C | 43% | 1008.5 hPa | 0 mm | - | 537 W/m² | - |
| 1777221063 | 11.67° C | 46% | 1008.6 hPa | 0 mm | - | 525 W/m² | - |
| 1777220762 | 10° C | 49% | 1008.8 hPa | 0 mm | - | 432 W/m² | - |
| 1777220458 | 10° C | 49% | 1009 hPa | 0 mm | - | 534 W/m² | - |
| 1777220158 | 10° C | 50% | 1008.9 hPa | 0 mm | - | 151 W/m² | - |
| 1777219855 | 10° C | 51% | 1008.9 hPa | 0 mm | - | 134 W/m² | - |
| 1777219552 | 10° C | 50% | 1009 hPa | 0 mm | - | 115 W/m² | - |
| 1777219249 | 10° C | 49% | 1008.9 hPa | 0 mm | - | 100 W/m² | - |
| 1777218944 | 10.56° C | 48% | 1008.6 hPa | 0 mm | - | 103 W/m² | - |
| 1777218641 | 10.56° C | 50% | 1008.8 hPa | 0 mm | - | 236 W/m² | - |
| 1777218336 | 11.11° C | 48% | 1008.6 hPa | 0 mm | - | 179 W/m² | - |
| 1777218033 | 11.11° C | 52% | 1008.6 hPa | 0 mm | - | 159 W/m² | - |
| 1777217728 | 11.11° C | 50% | 1008.9 hPa | 0 mm | - | 135 W/m² | - |
| 1777217425 | 10.56° C | 49% | 1008.4 hPa | 0 mm | - | 189 W/m² | - |
| 1777217121 | 9.44° C | 53% | 1008.6 hPa | 0 mm | - | 263 W/m² | - |
| 1777216817 | 8.89° C | 55% | 1008.6 hPa | 0 mm | - | 137 W/m² | - |
* Rain latest hour (hover to see other rain measurements)
** Current wind speed in m/s (hover to see current wind gust speed)